Weather in Grafton

Australia     29°42′25″S   152°56′26″E
temp.,
°C
wind,
m/s
gust,
m/s
humid.,
%
clouds,
%
prec.,
mm/h
press.,
hPa
HPBL,
m
15 may, sat
sat1501:00+10wsw218162 0.0 101526
04:00+9wsw2280100 0.0 101537
07:00+9w128168 0.0 101645
10:00+16wnw23520 0.0 1015422
13:00+20nw13400 0.0 1012975
16:00+18se12622 0.0 101260
19:00+11ssw228658 0.0 101534
22:00+10wsw311690 0.0 1016269
16 may, sun
sun1601:00+9sw26680 0.0 1017153
04:00+6sw23740 0.0 101847
07:00+6wsw23700 0.0 102059
10:00+15sw25540 0.0 1021927
13:00+19sse234818 0.0 10181705
16:00+17ene24670 0.0 1019149
19:00+11w11870 0.0 102111
22:00+9wsw11960 0.0 102212
17 may, mon
mon1701:00+8w11971 0.0 102121
04:00+7w22931 0.0 102140
07:00+5wsw22770 0.0 102253
10:00+15sw12430 0.0 1023385
13:00+19se23390 0.0 10211173
16:00+15se26590 0.0 1023387
19:00+9sw22775 0.0 102625
22:00+8sw22800 0.0 102745
18 may, tue
tue1801:00+8wsw23803 0.0 102749
04:00+7sw22811 0.0 102733
07:00+8wsw22791 0.0 102948
10:00+17sw13580 0.0 1029524
13:00+20ese135250 0.0 10261541
16:00+17ese257241 0.1 1026313
19:00+12ssw119325 0.0 102816
22:00+11sw12970 0.0 102826
19 may, wed
wed1901:00+10sw22970 0.0 102831
04:00+9sw22971 0.0 102836
07:00+10wsw12945 0.0 102938
10:00+18wsw11655 0.0 1029509
13:00+20ne116057 0.2 10261162
16:00+16ese248742 0.7 102695
19:00+12s119512 0.0 102812
22:00+11sw119727 0.0 102818